Latest Weather Observations for Grafton AgRS

IDN60801

Issued at 11:35 pm EDT Thursday 23 October 2014 (issued every 30 minutes, with the page automatically refreshed every 10 minutes)

About weather observations | Map of weather stations | Latest weather observations for NSW | Other Formats
Station Details ID: 058077 Name: GRAFTON RESEARCH STN Lat: -29.62 Lon: 152.96 Height: 25.0 m
Data from the previous 72 hours. | See also: Recent months for locations in New South Wales
Date/Time
EDT
Temp
°C
App
Temp
°C
Dew
Point
Rel
Hum
%
Delta-T
°C
Wind Press
QNH
hPa
Press
MSL
hPa
Rain
since 9 am
mm
Dir
 
Spd
km/h
Gust
km/h
Spd
kts
Gust
kts
23/11:30pm 16.8 18.6 15.5 92 0.8 E 0 0 0 0 - - 0.0
23/11:00pm 17.2 18.0 15.9 92 0.8 E 6 9 3 5 - - 0.0
23/10:30pm 17.4 18.2 15.9 91 0.9 NE 6 7 3 4 - - 0.0
23/10:00pm 17.8 19.7 15.8 88 1.2 CALM 0 0 0 0 - - 0.0
23/09:30pm 17.9 19.9 15.9 88 1.2 CALM 0 0 0 0 - - 0.0
23/09:00pm 18.5 20.3 15.4 82 1.8 CALM 0 0 0 0 - - 0.0
23/08:30pm 18.7 19.4 15.6 82 1.8 NW 6 7 3 4 - - 0.0
23/08:00pm 19.5 20.3 15.8 79 2.2 NE 6 7 3 4 - - 0.0
23/07:30pm 20.0 20.6 15.8 77 2.5 NE 7 9 4 5 - - 0.0
23/07:00pm 20.1 20.9 16.3 79 2.3 E 7 11 4 6 - - 0.0
23/06:30pm 20.4 22.1 16.2 77 2.5 W 2 9 1 5 - - 0.0
23/06:00pm 20.8 21.5 16.0 74 2.9 ENE 7 13 4 7 - - 0.0
23/05:30pm 21.8 22.3 15.6 68 3.7 NE 7 13 4 7 - - 0.0
23/05:00pm 22.4 21.4 15.5 65 4.1 E 15 22 8 12 - - 0.0
23/04:30pm 23.6 22.4 15.1 59 5.1 ENE 15 26 8 14 - - 0.0
23/04:00pm 25.2 23.3 15.2 54 6.0 ENE 19 30 10 16 - - 0.0
23/03:30pm 26.5 24.5 14.9 49 7.0 ENE 19 30 10 16 - - 0.0
23/03:00pm 27.4 25.5 15.1 47 7.5 E 19 28 10 15 - - 0.0
23/02:30pm 28.5 25.9 13.2 39 9.1 ENE 19 28 10 15 - - 0.0
23/02:00pm 29.0 26.8 14.4 41 8.8 ENE 19 30 10 16 - - 0.0
23/01:30pm 28.5 26.5 14.0 41 8.7 E 17 24 9 13 - - 0.0
23/01:00pm 27.5 26.9 14.5 45 7.8 SSE 11 24 6 13 - - 0.0
23/12:30pm 27.2 26.5 13.2 42 8.2 ENE 9 15 5 8 - - 0.0
23/12:00pm 26.5 25.7 12.9 43 7.9 S 9 13 5 7 - - 0.0
23/11:30am 25.7 25.0 13.2 46 7.3 N 9 15 5 8 - - 0.0
23/11:00am 24.9 24.5 13.1 48 6.9 NNW 7 15 4 8 - - 0.0
23/10:30am 23.5 22.2 12.5 50 6.3 NNW 11 20 6 11 - - 0.0
23/10:00am 23.2 22.6 13.4 54 5.7 NW 9 17 5 9 - - 0.0
23/09:30am 21.7 20.2 12.0 54 5.5 N 11 20 6 11 - - 0.0
23/09:00am 20.8 19.9 12.5 59 4.7 NNW 9 15 5 8 - - 0.0
23/08:30am 19.9 18.9 12.4 62 4.2 N 9 17 5 9 - - 0.0
23/08:00am 18.3 17.8 12.7 70 3.1 N 7 9 4 5 - - 0.0
23/07:30am 16.6 16.2 12.9 79 2.1 NW 7 11 4 6 - - 0.0
23/07:00am 15.0 15.6 13.0 88 1.1 N 2 6 1 3 - - 0.0
23/06:30am 14.3 15.1 12.5 89 1.0 CALM 0 0 0 0 - - 0.0
23/06:00am 14.4 14.7 12.1 86 1.2 N 2 6 1 3 - - 0.0
23/05:30am 15.0 15.8 12.7 86 1.3 CALM 0 0 0 0 - - 0.0
23/05:00am 15.7 16.6 12.8 83 1.6 CALM 0 0 0 0 - - 0.0
23/04:30am 15.9 15.6 12.6 81 1.8 NW 6 9 3 5 - - 0.0
23/04:00am 15.4 16.4 13.2 87 1.2 CALM 0 0 0 0 - - 0.0
23/03:30am 15.2 16.2 13.2 88 1.1 CALM 0 0 0 0 - - 0.0
23/03:00am 15.1 16.1 13.3 89 1.0 CALM 0 0 0 0 - - 0.0
23/02:30am 15.0 16.1 13.5 91 0.8 CALM 0 0 0 0 - - 0.0
23/02:00am 15.0 16.1 13.5 91 0.8 CALM 0 0 0 0 - - 0.0
23/01:30am 14.8 15.1 13.3 91 0.8 NNE 4 7 2 4 - - 0.0
23/01:00am 14.9 15.2 13.3 90 0.9 NNE 4 7 2 4 - - 0.0
23/12:30am 15.1 16.1 13.3 89 1.0 CALM 0 0 0 0 - - 0.0
23/12:00am 15.0 15.8 12.7 86 1.3 NW 0 0 0 0 - - 0.0
 
Date/Time
EDT
Temp
°C
App
Temp
°C
Dew
Point
Rel
Hum
%
Delta-T
°C
Wind Press
QNH
hPa
Press
MSL
hPa
Rain
since 9 am
mm
Dir
 
Spd
km/h
Gust
km/h
Spd
kts
Gust
kts
22/11:30pm 15.7 16.6 13.0 84 1.5 CALM 0 0 0 0 - - 0.0
22/11:00pm 16.2 17.2 13.3 83 1.6 CALM 0 0 0 0 - - 0.0
22/10:30pm 16.0 17.2 13.7 86 1.3 CALM 0 0 0 0 - - 0.0
22/10:00pm 16.0 16.8 12.7 81 1.8 CALM 0 0 0 0 - - 0.0
22/09:30pm 16.2 16.4 13.1 82 1.7 NNW 4 7 2 4 - - 0.0
22/09:00pm 16.2 16.7 12.9 81 1.8 NE 2 6 1 3 - - 0.0
22/08:30pm 16.8 16.6 12.9 78 2.2 NE 6 7 3 4 - - 0.0
22/08:00pm 17.2 16.7 12.7 75 2.5 ENE 7 11 4 6 - - 0.0
22/07:30pm 17.9 17.0 12.6 71 3.0 ENE 9 13 5 7 - - 0.0
22/07:00pm 18.9 17.9 12.2 65 3.7 ENE 9 15 5 8 - - 0.0
22/06:30pm 20.2 18.9 12.4 61 4.4 ENE 11 19 6 10 - - 0.0
22/06:00pm 21.0 18.5 12.2 57 4.9 E 17 24 9 13 - - 0.0
22/05:30pm 21.7 20.0 12.3 55 5.3 ENE 13 24 7 13 - - 0.0
22/05:00pm 22.2 19.8 12.7 55 5.4 ENE 17 22 9 12 - - 0.0
22/04:30pm 22.5 19.6 13.0 55 5.5 E 20 30 11 16 - - 0.0
22/04:00pm 23.3 21.7 13.8 55 5.5 ENE 15 22 8 12 - - 0.0
22/03:30pm 22.2 19.8 12.7 55 5.4 ENE 17 26 9 14 - - 0.0
22/03:00pm 23.7 21.4 13.0 51 6.2 E 17 28 9 15 - - 0.0
22/02:30pm 24.4 22.0 9.9 40 8.0 E 13 22 7 12 - - 0.0
22/02:00pm 24.0 22.4 10.3 42 7.6 ESE 9 20 5 11 - - 0.0
22/01:30pm 23.0 21.8 11.7 49 6.4 ESE 9 17 5 9 - - 0.0
22/01:00pm 22.3 20.6 12.3 53 5.7 SE 13 17 7 9 - - 0.0
22/12:30pm 22.4 20.4 11.5 50 6.1 ESE 13 20 7 11 - - 0.0
22/12:00pm 23.1 21.8 12.4 51 6.1 SE 11 17 6 9 - - 0.0
22/11:30am 22.7 21.8 13.7 56 5.2 SSE 11 19 6 10 - - 0.0
22/11:00am 21.8 20.0 12.1 54 5.5 ESE 13 24 7 13 - - 0.0
22/10:30am 21.8 20.7 13.2 58 4.9 S 11 17 6 9 - - 0.0
22/10:00am 19.9 18.2 12.4 62 4.2 S 13 19 7 10 - - 0.0
22/09:30am 19.3 18.5 12.8 66 3.7 SW 9 15 5 8 - - 0.0
22/09:00am 18.7 17.7 13.3 71 3.1 SW 11 15 6 8 - - 0.0
22/08:30am 17.0 16.2 14.1 83 1.7 SW 11 15 6 8 - - 0.0
22/08:00am 16.0 15.5 13.7 86 1.3 SW 9 13 5 7 - - 0.0
22/07:30am 15.6 14.3 13.8 89 1.0 W 13 17 7 9 - - 0.0
22/07:00am 14.3 14.6 13.3 94 0.6 WSW 4 7 2 4 - - 0.0
22/06:30am 13.8 12.6 12.7 93 0.6 W 11 13 6 7 - - 0.0
22/06:00am 13.9 13.1 12.8 93 0.6 W 9 13 5 7 - - 0.0
22/05:30am 14.4 13.5 13.6 95 0.4 WNW 11 15 6 8 - - 0.0
22/05:00am 14.5 14.2 13.2 92 0.7 W 7 7 4 4 - - 0.0
22/04:30am 14.6 14.2 13.1 91 0.8 SSW 7 11 4 6 - - 0.0
22/04:00am 15.1 14.0 13.1 88 1.1 SSE 11 17 6 9 - - 0.0
22/03:30am 15.1 13.9 12.8 86 1.3 S 11 17 6 9 - - 0.0
22/03:00am 15.4 14.6 12.9 85 1.4 S 9 13 5 7 - - 0.0
22/02:30am 15.1 14.9 13.0 87 1.2 SSW 6 9 3 5 - - 0.0
22/02:00am 15.5 14.8 13.2 86 1.3 S 9 15 5 8 - - 0.0
22/01:30am 15.8 14.6 12.9 83 1.6 S 11 15 6 8 - - 0.0
22/01:00am 15.9 14.8 13.0 83 1.6 S 11 17 6 9 - - 0.0
22/12:30am 15.5 14.1 13.3 87 1.2 SSE 13 17 7 9 - - 0.0
22/12:00am 15.0 14.2 13.0 88 1.1 S 9 13 5 7 - - 0.0
 
Date/Time
EDT
Temp
°C
App
Temp
°C
Dew
Point
Rel
Hum
%
Delta-T
°C
Wind Press
QNH
hPa
Press
MSL
hPa
Rain
since 9 am
mm
Dir
 
Spd
km/h
Gust
km/h
Spd
kts
Gust
kts
21/11:30pm 14.9 14.4 12.6 86 1.3 S 7 9 4 5 - - 0.0
21/11:00pm 15.5 14.0 13.0 85 1.4 SSE 13 19 7 10 - - 0.0
21/10:30pm 16.2 14.5 13.5 84 1.5 SE 15 19 8 10 - - 0.0
21/10:00pm 16.6 14.5 12.4 76 2.3 SSE 15 19 8 10 - - 0.0
21/09:30pm 17.2 13.9 11.7 70 3.0 ESE 20 26 11 14 - - 0.0
21/09:00pm 17.5 15.7 12.0 70 3.0 SSE 13 19 7 10 - - 0.0
21/08:30pm 17.6 14.9 11.8 69 3.2 SE 17 24 9 13 - - 0.0
21/08:00pm 17.7 14.8 11.0 65 3.6 SE 17 26 9 14 - - 0.0
21/07:30pm 17.5 14.5 10.6 64 3.7 SE 17 22 9 12 - - 0.0
21/07:00pm 17.8 15.5 11.8 68 3.3 ESE 15 22 8 12 - - 0.0
21/06:30pm 18.7 15.6 12.2 66 3.6 ESE 20 26 11 14 - - 0.0
21/06:00pm 19.5 15.3 11.0 58 4.6 SE 24 32 13 17 - - 0.0
21/05:30pm 20.6 16.3 10.7 53 5.4 SE 24 33 13 18 - - 0.0
21/05:00pm 20.6 15.7 10.1 51 5.7 ESE 26 37 14 20 - - 0.0
21/04:30pm 20.8 16.4 10.3 51 5.7 ESE 24 33 13 18 - - 0.0
21/04:00pm 21.0 17.2 11.1 53 5.5 SE 22 33 12 18 - - 0.0
21/03:30pm 22.6 18.0 12.3 52 5.8 ESE 28 39 15 21 - - 0.0
21/03:00pm 22.3 18.1 12.3 53 5.7 SSE 26 35 14 19 - - 0.0
21/02:30pm 21.2 16.4 11.8 55 5.3 SE 28 39 15 21 - - 0.0
21/02:00pm 21.7 16.8 11.4 52 5.7 SE 28 37 15 20 - - 0.0
21/01:30pm 21.7 17.0 12.0 54 5.5 SE 28 33 15 18 - - 0.0
21/01:00pm 22.5 18.6 10.9 48 6.4 SSE 22 30 12 16 - - 0.0
21/12:30pm 22.3 18.5 11.1 49 6.2 SE 22 32 12 17 - - 0.0
21/12:00pm 21.7 17.5 11.1 51 5.9 SSE 24 32 13 17 - - 0.0
21/11:30am 21.4 16.3 10.6 50 5.9 SSE 28 33 15 18 - - 0.0
21/11:00am 21.0 17.3 11.6 55 5.2 SSE 22 33 12 18 - - 0.0
21/10:30am 20.3 16.0 12.0 59 4.6 SSE 26 37 14 20 - - 0.0
21/10:00am 19.8 15.3 11.3 58 4.7 SSE 26 37 14 20 - - 0.0
21/09:30am 19.6 15.1 11.4 59 4.5 SSE 26 35 14 19 - - 0.0
21/09:00am 18.8 13.8 12.1 65 3.7 SSE 30 41 16 22 - - 0.0
21/08:30am 18.9 15.5 12.4 66 3.6 S 22 32 12 17 - - 0.0
21/08:00am 18.8 15.0 12.3 66 3.6 S 24 30 13 16 - - 0.0
21/07:30am 18.6 16.2 12.8 69 3.3 S 17 22 9 12 - - 0.0
21/07:00am 18.1 16.5 12.8 71 3.0 S 13 20 7 11 - - 0.0
21/06:30am 17.9 16.1 13.2 74 2.6 S 15 20 8 11 - - 0.0
21/06:00am 17.8 16.4 13.5 76 2.4 S 13 19 7 10 - - 0.0
21/05:30am 17.9 15.8 13.6 76 2.4 S 17 20 9 11 - - 0.0
21/05:00am 18.1 16.5 13.8 76 2.5 S 15 20 8 11 - - 0.0
21/04:30am 18.2 15.8 13.7 75 2.6 S 19 24 10 13 - - 0.0
21/04:00am 18.2 15.8 13.9 76 2.5 SSE 19 28 10 15 - - 0.0
21/03:30am 18.2 17.0 14.1 77 2.4 S 13 17 7 9 - - 0.0
21/03:00am 18.2 16.7 14.1 77 2.4 S 15 19 8 10 - - 0.0
21/02:30am 18.4 16.5 14.1 76 2.5 S 17 22 9 12 - - 0.0
21/02:00am 18.5 16.2 14.0 75 2.6 S 19 24 10 13 - - 0.0
21/01:30am 18.6 16.3 14.1 75 2.6 S 19 26 10 14 - - 0.0
21/01:00am 18.6 16.7 14.3 76 2.5 S 17 22 9 12 - - 0.0
21/12:30am 18.7 16.3 14.4 76 2.5 S 20 30 11 16 - - 0.0
21/12:00am 18.7 16.5 14.4 76 2.5 S 19 28 10 15 - - 0.0

Other Formats:

Comma delimited format used in spreadsheet applications
http://www.bom.gov.au/fwo/IDN60801/IDN60801.95571.axf

JavaScript Object Notation format (JSON) in row-major order
http://www.bom.gov.au/fwo/IDN60801/IDN60801.95571.json